User: anonymous
Location: Caltech
(34.1382°N, 118.1253°W)
Time: 19:22:42
(UTC-07:00)
Language:

UOSAT-12 - Orbit

View from above orbital plane
View from above orbital plane
View from above satellite
View from above satellite

Ground track
Ground track

The orbit data is extracted from the following two-line orbital elements,

1 25693U 99021A   14274.52118613  .00000674  00000-0  10617-3 0  6229
2 25693 064.5559 294.8996 0049812 274.6292 204.7164 14.80053010833655
Epoch (UTC): 01 October 2014 12:30:30
Eccentricity: 0.0049812
inclination: 64.5559°
perigee height: 594 km
apogee height: 664 km
right ascension of ascending node: 294.8996°
argument of perigee: 274.6292°
revolutions per day: 14.80053010
mean anomaly at epoch: 204.7164°
orbit number at epoch: 83365

The dashed part of the orbit path shows where the satellite is in the earth's shadow,  

DLR